Weather Roundup
Issued by NWS

Home | Current Version | Previous Version | Graphics & Text | Print | Product List | Glossary Off
Versions: 1 2 3 4 5 6 7 8 9 10 11 12 13 14 15 16 17 18 19 20 21 22 23 24 25 26 27 28 29 30 31 32 33 34 35 36 37 38 39 40 41 42 43 44 45 46 47 48 49 50

000
NZUS93 KARX 250959
HRRWXR

CURRENT HOURLY OBSERVATIONS ACROSS
MUCH OF THE UPPER MISSISSIPPI VALLEY
NATIONAL WEATHER SERVICE LA CROSSE WI
400 AM CST SUN JAN 25 2015


...SOUTHEAST MINNESOTA...


CITY           SKY/WX    TMP DP  RH WIND       PRES   REMARKS
ROCHESTER      CLOUDY    33  30  88 NE14      29.70R WCI  23
ROCHESTER/MAYO CLOUDY    34  30  87 N13G20    29.71R WCI  25
WINONA         CLOUDY    34  32  93 NE8       29.74R WCI  27
AUSTIN         LGT SNOW  34  30  86 NE10      29.67R WCI  26
ALBERT LEA     LGT SNOW  34  34 100 NE12      29.68R WCI  25
DODGE CENTER   FLURRIES  32  30  93 NE17G24   29.70R WCI  21
PRESTON        LGT SNOW  32  30  93 NE9       29.68R WCI  24
OWATONNA       FLURRIES  34  30  86 N13       29.72R WCI  25
FARIBAULT      FLURRIES  32  28  86 N18G25    29.75R WCI  20
$$

...ELSEWHERE IN MINNESOTA...


CITY           SKY/WX    TMP DP  RH WIND       PRES   REMARKS
MINNEAPOLIS    CLOUDY    30  23  75 N16       29.81R WCI  19
INTNL FALLS    CLOUDY     4  -4  69 E8        29.99R WCI  -9
DULUTH         FLURRIES  18  12  77 E14       29.90R WCI   4
RED WING       CLOUDY    30  25  80 NE8G20    29.77R WCI  23
REDWOOD FALLS  LGT SNOW  33  31  92 N9        29.80R FOG     WCI  25
MANKATO        CLOUDY    34  28  80 NE15      29.75R WCI  24
WORTHINGTON    CLOUDY    32  30  93 N16       29.74R WCI  21
FAIRMONT       CLOUDY    34  28  80 N13       29.71R WCI  25
$$

...SOUTHWEST WISCONSIN...


CITY           SKY/WX    TMP DP  RH WIND       PRES   REMARKS
LA CROSSE      CLOUDY    33  28  81 E13G22    29.73R WCI  24
PRAIRIE DU CHI CLOUDY    35  30  82 E13       29.65S WCI  26
BOSCOBEL       LGT SNOW  34  31  88 E10G17    29.69R FOG     WCI  26
LONE ROCK      LGT SNOW  31  28  89 E16       29.72R FOG     WCI  20
PLATTEVILLE    CLOUDY    33  31  92 NE18      29.63S WCI  22
FORT MC COY    CLOUDY    29  25  86 E14G20    29.76R WCI  18
VIROQUA        CLOUDY    31  31 100 E21       29.68R WCI  19
WIS DELLS      NOT AVBL
$$

...ELSEWHERE IN WISCONSIN...


CITY           SKY/WX    TMP DP  RH WIND       PRES   REMARKS
MILWAUKEE      FLURRIES  30  24  78 NE22G31   29.76R WCI  17
MADISON        CLOUDY    28  22  78 NE18G28   29.74R WCI  15
GREEN BAY      CLOUDY    21  14  74 NE16G30   29.85S WCI   7
EAU CLAIRE     CLOUDY    27  20  75 NE10      29.80R WCI  17
BLACK RVR FLS  LGT SNOW  30  29  96 E12       29.76R WCI  21
MEDFORD        CLOUDY    20  14  79 NE13      29.79S WCI   7
WAUSAU         CLOUDY    19  11  70 NE12      29.81R WCI   7
WIS RAPIDS     CLOUDY    23  15  71 E9G22     29.81R WCI  13
MARSHFIELD     CLOUDY    27  20  75 E16       29.78R WCI  15
RICE LAKE      CLOUDY    20  12  71 N15G21    29.85R WCI   6
$$

...NORTHEAST IOWA...


CITY           SKY/WX    TMP DP  RH WIND       PRES   REMARKS
DECORAH        CLOUDY    34  32  93 E14       29.64R WCI  24
MASON CITY     LGT SNOW  33  32  96 NE14      29.65R FOG     WCI  23
CHARLES CITY   CLOUDY    36  36 100 NE12      29.63R WCI  27
OELWEIN        CLOUDY    34  34 100 NE14G21   29.60R WCI  24
$$

...ELSEWHERE IN IOWA...


CITY           SKY/WX    TMP DP  RH WIND       PRES   REMARKS
DES MOINES     CLOUDY    41  37  86 NE14      29.56S
IOWA CITY      LGT RAIN  35  34  96 CALM      29.59S
FORT DODGE     CLOUDY    34  30  86 N7        29.63R WCI  28
$$

...NORTHERN ILLINOIS...


CITY           SKY/WX    TMP DP  RH WIND       PRES   REMARKS
CHICAGO-OHARE  CLOUDY    33  30  88 NE9       29.67S FOG     WCI  25
CHICAGO-MIDWAY CLOUDY    35  32  88 NE8       29.68R WCI  29
MOLINE         CLOUDY    34  31  88 E6        29.59R WCI  29
ROCKFORD       CLOUDY    33  29  85 NE17G26   29.69R WCI  22
PEORIA         CLOUDY    39  32  76 CALM      29.59F
$$

NOTE: "FAIR" INDICATES FEW OR NO CLOUDS BELOW 12,000 FEET WITH NO
SIGNIFICANT WEATHER AND/OR OBSTRUCTIONS TO VISIBILITY. WIND
SPEEDS ARE IN MILES-PER-HOUR.



USA.gov is the U.S. government's official web portal to all federal, state and local government web resources and services.